{"data":{"norad_id":53733,"intl_designator":"2022-107AK","name":"STARLINK-4574","alt_names":[],"object_type":"PAYLOAD","status":"ACTIVE","operator":null,"country":"US","launch_date":"2022-09-05","launch_site_code":"AFETR","launch_vehicle":null,"mission":null,"orbit_class":"UNKNOWN","rcs_meters":null,"size_class":null,"mass_kg":null,"dimensions":null,"purposes":["comms"],"wikipedia_slug":null,"has_3d_model":false,"image_url":null,"decayed_at":null,"tle_current":{"epoch":"2026-09-20T22:10:09.446880Z","epoch_age_seconds":44712,"freshness":"FRESH","line1":"1 53733U 22107AK  26263.92372045  .00000127  00000+0  15193-4 0  9996","line2":"2 53733  53.1564  81.8464 0001109  89.8111 270.3018 15.33551332224276","mean_motion":15.33551332,"eccentricity":0.0001109,"inclination_deg":53.1564,"raan_deg":81.8464,"arg_perigee_deg":89.8111,"mean_anomaly_deg":270.3018,"bstar":1.5193e-5,"rev_number":22427,"period_min":93.899693473058,"perigee_km":464.46789448927,"apogee_km":465.98575258533,"semimajor_km":6843.3638235373,"source":"CELESTRAK","updated_at":"2026-09-21T09:00:32.988231Z"}}}